sat.trackr.live / text

‹ back to catalog

STARLINK-30615

NORAD 58092 · 2023-160T

PAYLOAD ACTIVE UNKNOWN

§ Identity

Operator
Country
US
Launch date
2023-10-18
Launch site
AFETR
Launch vehicle
Mass (kg)
RCS (m²)

Purposes: comms

External: N2YO · Heavens-Above · Gunter

§ Orbital elements

Epoch: 2026-05-25T00:28:50.193696Z

Period
94.27 min
Inclination
43.0049°
Eccentricity
0.0001525
Mean motion
15.27571024 rev/d
Perigee alt
482.0 km
Apogee alt
484.1 km
Semi-major
6,861.2 km
B*
2.5120e-5
RAAN
7.3125°
Arg perigee
268.1267°
Mean anomaly
91.9409°
Rev number
14,461

§ Raw data

STARLINK-306151 58092U 23160T   26145.02002539  .00000429  00000+0  25120-4 0  99932 58092  43.0049   7.3125 0001525 268.1267  91.9409 15.27571024144611

JSON: /api/v1/satellites/58092 · /tle

For live sub-satellite position, see the globe view (requires WebGL).

§ Visibility from observer

Set your observer location to see the next 7 days of passes ≥ 10°. The values pass through the URL so the page stays shareable.

No JS? Fill the form by hand. The geolocation button needs JavaScript.